Regional Weather Roundup
Issued by NWS

Home | Current Version | Previous Version | Graphics & Text | Print | Product List | Glossary On
Versions: 1 2 3 4 5 6 7 8 9 10 11 12 13 14 15 16 17 18 19 20 21 22 23 24 25 26 27 28 29 30 31 32 33 34 35 36 37 38 39 40 41 42 43 44 45 46 47 48 49 50
000
ASUS43 KIND 241800
RWRIN

WEATHER ROUNDUP FOR INDIANA
NATIONAL WEATHER SERVICE INDIANAPOLIS IN
200 PM EDT MON JUL 24 2017

NOTE: "FAIR" INDICATES FEW OR NO CLOUDS BELOW 12,000 FEET WITH NO
SIGNIFICANT WEATHER AND/OR OBSTRUCTIONS TO VISIBILITY.

* - STATION DOES NOT REPORT WEATHER SUCH AS PRECIPITATION OR FOG.

+ - STATION NOT QUALITY CONTROLLED BY THE NATIONAL WEATHER SERVICE.
    USE DATA WITH CAUTION...ESPECIALLY DEWPOINT AND RELATIVE
    HUMIDITY OBSERVATIONS.

INZ001>003-010>013-019-020-241900-
NORTHWEST INDIANA

CITY           SKY/WX    TMP DP  RH WIND       PRES   REMARKS
GARY /AIRPORT/ PTSUNNY   73  59  60 N14       30.05R
MONTICELLO +   PTSUNNY   74  63  69 N9G21     30.00R
6HR MIN TEMP:  67; 6HR MAX TEMP:  76;

RENSSELAER +   PTSUNNY   73  61  64 N10       30.01R

$$

LMZ046-743>745-241900-
SOUTHERN LAKE MICHIGAN

STATION/POSITION TIME  TEMP    WIND        PRES    WAVE
                       AIR SEA DIR/SP/G            HT
                 (UTC) (F)     (DEG/KT/KT) (MB)    (FT)
BURNS HARBOR     1740   69      20/ 12/ 16 1017.3R
MICHIGAN CITY    1730   67      10/ 16/ 18   N/A
5NW MICH CITY    1750   68 74   30/ 12/ 16   N/A     5

$$

INZ004-005-014>016-021>024-241900-
NORTH CENTRAL INDIANA

CITY           SKY/WX    TMP DP  RH WIND       PRES   REMARKS
ELKHART        PTSUNNY   72  57  60 N7        30.01S
GOSHEN         PTSUNNY   72  57  59 N12G17    30.01R
6HR MIN TEMP:  66; 6HR MAX TEMP:  75;

SOUTH BEND     PTSUNNY   72  60  66 N9        30.02R
6HR MIN TEMP:  66; 6HR MAX TEMP:  73;


$$

INZ006>009-017-018-025>027-241900-
NORTHEAST INDIANA

CITY           SKY/WX    TMP DP  RH WIND       PRES   REMARKS
FORT WAYNE     CLOUDY    72  60  66 N12       30.00R
6HR MIN TEMP:  67; 6HR MAX TEMP:  75;

KENDALLVILLE + CLOUDY    69  59  69 N5        30.02R

$$

INZ028-029-035-036-043>045-051>053-241900-
WEST CENTRAL INDIANA

CITY           SKY/WX    TMP DP  RH WIND       PRES   REMARKS
LAFAYETTE      PTSUNNY   78  66  66 N9        29.99S
6HR MIN TEMP:  68; 6HR MAX TEMP:  78;

TERRE HAUTE    MOSUNNY   82  66  58 VRB5      29.98S
6HR MIN TEMP:  70; 6HR MAX TEMP:  83;


$$

INZ030>032-037>040-046>048-054>057-064-065-241900-
CENTRAL INDIANA

CITY           SKY/WX    TMP DP  RH WIND       PRES   REMARKS
COLUMBUS       PTSUNNY   79  64  61 N6        29.97S
GREENWOOD *+   MOSUNNY  N/A N/A N/A NE5       29.98S
INDIANAPOLIS   MOSUNNY   81  66  60 N13       29.97S
6HR MIN TEMP:  70; 6HR MAX TEMP:  81;

-EAGLE CREEK   MOSUNNY   79  66  64 NW12      29.98S
6HR MIN TEMP:  70; 6HR MAX TEMP:  80;

KOKOMO +       PTSUNNY   78  65  63 N8        30.01S
6HR MIN TEMP:  68; 6HR MAX TEMP:  78;

MT COMFORT *+  PTSUNNY   79  66  65 N9        29.99S
SHELBYVILLE    PTSUNNY   80  66  62 N9        29.97S
6HR MIN TEMP:  70; 6HR MAX TEMP:  81;


$$

INZ033-034-041-042-049-050-058-059-241900-
EAST CENTRAL INDIANA

CITY           SKY/WX    TMP DP  RH WIND       PRES   REMARKS
MUNCIE         PTSUNNY   78  65  63 N9        29.99R
6HR MIN TEMP:  69; 6HR MAX TEMP:  79;

RICHMOND +     MOSUNNY   77  64  65 N8        29.98S

$$

INZ060-061-067>069-081>083-085>088-241900-
SOUTHWEST INDIANA

CITY           SKY/WX    TMP DP  RH WIND       PRES   REMARKS
EVANSVILLE     MOSUNNY   89  70  53 VRB3      29.94F
6HR MIN TEMP:  73; 6HR MAX TEMP:  90;

HUNTINGBURG *+ MOSUNNY   86  74  67 VRB5      29.95S
6HR MIN TEMP:  72; 6HR MAX TEMP:  86;


$$

INZ062-063-066-070>080-084-089>092-241900-
SOUTH CENTRAL AND SOUTHEAST INDIANA

CITY           SKY/WX    TMP DP  RH WIND       PRES   REMARKS
BLOOMINGTON    SUNNY     84  66  54 VRB7      29.97S
6HR MIN TEMP:  70; 6HR MAX TEMP:  84;

MADISON *+     MOSUNNY   84  63  48 CALM      29.98S
SEYMOUR +      SUNNY    N/A N/A N/A N8        29.96S

$$





USA.gov is the U.S. government's official web portal to all federal, state and local government web resources and services.